Year,Month,Day,Hour,Minute,Value (Times are PST for temperature in C)
2018,10,22,00,20,4.50
2018,10,22,00,21,4.50
2018,10,22,00,22,4.50
2018,10,22,00,23,4.50
2018,10,22,00,24,4.40
2018,10,22,00,25,4.40
2018,10,22,00,26,4.40
2018,10,22,00,27,4.40
2018,10,22,00,28,4.40
2018,10,22,00,29,4.40
2018,10,22,00,30,4.40
2018,10,22,00,31,4.30
2018,10,22,00,32,4.30
2018,10,22,00,33,4.30
2018,10,22,00,34,4.30
2018,10,22,00,35,4.30
2018,10,22,00,36,4.30
2018,10,22,00,37,4.30
2018,10,22,00,38,4.30
2018,10,22,00,39,4.30
2018,10,22,00,40,4.30
2018,10,22,00,41,4.30
2018,10,22,00,42,4.30
2018,10,22,00,43,4.30
2018,10,22,00,44,4.20
2018,10,22,00,45,4.20
2018,10,22,00,46,4.20
2018,10,22,00,47,4.20
2018,10,22,00,48,4.20
2018,10,22,00,49,4.20
2018,10,22,00,50,4.20
2018,10,22,00,51,4.10
2018,10,22,00,52,4.10
2018,10,22,00,53,4.10
2018,10,22,00,54,4.20
2018,10,22,00,55,4.20
2018,10,22,00,56,4.20
2018,10,22,00,57,4.20
2018,10,22,00,58,4.20
2018,10,22,00,59,4.20
2018,10,22,01,00,4.20
2018,10,22,01,01,4.20
2018,10,22,01,02,4.20
2018,10,22,01,03,4.20
2018,10,22,01,04,4.20
2018,10,22,01,05,4.20
2018,10,22,01,06,4.20
2018,10,22,01,07,4.20
2018,10,22,01,08,4.20
2018,10,22,01,09,4.10
2018,10,22,01,10,4.10
2018,10,22,01,11,4.10
2018,10,22,01,12,4.10
2018,10,22,01,13,4.10
2018,10,22,01,14,4.10
2018,10,22,01,15,4.10
2018,10,22,01,16,4.00
2018,10,22,01,17,4.00
2018,10,22,01,18,4.00
2018,10,22,01,19,4.00
2018,10,22,01,20,4.00
2018,10,22,01,21,4.00
2018,10,22,01,22,4.00
2018,10,22,01,23,4.00
2018,10,22,01,24,4.00
2018,10,22,01,25,4.00
2018,10,22,01,26,3.90
2018,10,22,01,27,3.90
2018,10,22,01,28,3.90
2018,10,22,01,29,3.90
2018,10,22,01,30,3.90
2018,10,22,01,31,3.90
2018,10,22,01,32,3.90
2018,10,22,01,33,3.90
2018,10,22,01,34,3.90
2018,10,22,01,35,3.90
2018,10,22,01,36,3.80
2018,10,22,01,37,3.80
2018,10,22,01,38,3.80
2018,10,22,01,39,3.80
2018,10,22,01,40,3.80
2018,10,22,01,41,3.80
2018,10,22,01,42,3.80
2018,10,22,01,43,3.80
2018,10,22,01,44,3.80
2018,10,22,01,45,3.80
2018,10,22,01,46,3.80
2018,10,22,01,47,3.90
2018,10,22,01,48,3.90
2018,10,22,01,49,3.90
2018,10,22,01,50,3.90
2018,10,22,01,51,3.90
2018,10,22,01,52,3.90
2018,10,22,01,53,3.90
2018,10,22,01,54,3.80
2018,10,22,01,55,3.80
2018,10,22,01,56,3.80
2018,10,22,01,57,3.80
2018,10,22,01,58,3.80
2018,10,22,01,59,3.80
2018,10,22,02,00,3.80
2018,10,22,02,01,3.70
2018,10,22,02,02,3.70
2018,10,22,02,03,3.70
2018,10,22,02,04,3.70
2018,10,22,02,05,3.70
2018,10,22,02,06,3.70
2018,10,22,02,07,3.70
2018,10,22,02,08,3.70
2018,10,22,02,09,3.70
2018,10,22,02,10,3.70
2018,10,22,02,11,3.70
2018,10,22,02,12,3.70
2018,10,22,02,13,3.70
2018,10,22,02,14,3.60
2018,10,22,02,15,3.60
2018,10,22,02,16,3.60
2018,10,22,02,17,3.60
2018,10,22,02,18,3.60
2018,10,22,02,19,3.50
2018,10,22,02,20,3.50
2018,10,22,02,21,3.50
2018,10,22,02,22,3.50
2018,10,22,02,23,3.50
2018,10,22,02,24,3.50
2018,10,22,02,25,3.50
2018,10,22,02,26,3.50
2018,10,22,02,27,3.50
2018,10,22,02,28,3.40
2018,10,22,02,29,3.40
2018,10,22,02,30,3.40
2018,10,22,02,31,3.40
2018,10,22,02,32,3.40
2018,10,22,02,33,3.40
2018,10,22,02,34,3.40
2018,10,22,02,35,3.40
2018,10,22,02,36,3.40
2018,10,22,02,37,3.40
2018,10,22,02,38,3.40
2018,10,22,02,39,3.40
2018,10,22,02,40,3.40
2018,10,22,02,41,3.40
2018,10,22,02,42,3.40
2018,10,22,02,43,3.40
2018,10,22,02,44,3.40
2018,10,22,02,45,3.40
2018,10,22,02,46,3.40
2018,10,22,02,47,3.40
2018,10,22,02,48,3.40
2018,10,22,02,49,3.30
2018,10,22,02,50,3.40
2018,10,22,02,51,3.40
2018,10,22,02,52,3.30
2018,10,22,02,53,3.30
2018,10,22,02,54,3.30
2018,10,22,02,55,3.30
2018,10,22,02,56,3.30
2018,10,22,02,57,3.30
2018,10,22,02,58,3.30
2018,10,22,02,59,3.30
2018,10,22,03,00,3.30
2018,10,22,03,01,3.30
2018,10,22,03,02,3.30
2018,10,22,03,03,3.30
2018,10,22,03,04,3.20
2018,10,22,03,05,3.20
2018,10,22,03,06,3.20
2018,10,22,03,07,3.20
2018,10,22,03,08,3.20
2018,10,22,03,09,3.20
2018,10,22,03,10,3.20
2018,10,22,03,11,3.20
2018,10,22,03,12,3.20
2018,10,22,03,13,3.10
2018,10,22,03,14,3.10
2018,10,22,03,15,3.10
2018,10,22,03,16,3.10
2018,10,22,03,17,3.10
2018,10,22,03,18,3.10
2018,10,22,03,19,3.10
2018,10,22,03,20,3.10
2018,10,22,03,21,3.10
2018,10,22,03,22,3.10
2018,10,22,03,23,3.10
2018,10,22,03,24,3.10
2018,10,22,03,25,3.10
2018,10,22,03,26,3.10
2018,10,22,03,27,3.10
2018,10,22,03,28,3.10
2018,10,22,03,29,3.10
2018,10,22,03,30,3.10
2018,10,22,03,31,3.10
2018,10,22,03,32,3.10
2018,10,22,03,33,3.10
2018,10,22,03,34,3.10
2018,10,22,03,35,3.10
2018,10,22,03,36,3.10
2018,10,22,03,37,3.10
2018,10,22,03,38,3.10
2018,10,22,03,39,3.10
2018,10,22,03,40,3.10
2018,10,22,03,41,3.10
2018,10,22,03,42,3.10
2018,10,22,03,43,3.10
2018,10,22,03,44,3.10
2018,10,22,03,45,3.10
2018,10,22,03,46,3.10
2018,10,22,03,47,3.10
2018,10,22,03,48,3.10
2018,10,22,03,49,3.10
2018,10,22,03,50,3.10
2018,10,22,03,51,3.10
2018,10,22,03,52,3.10
2018,10,22,03,53,3.10
2018,10,22,03,54,3.10
2018,10,22,03,55,3.10
2018,10,22,03,56,3.10
2018,10,22,03,57,3.10
2018,10,22,03,58,3.10
2018,10,22,03,59,3.10
2018,10,22,04,00,3.10
2018,10,22,04,01,3.10
2018,10,22,04,02,3.10
2018,10,22,04,03,3.00
2018,10,22,04,04,3.00
2018,10,22,04,05,3.00
2018,10,22,04,06,3.00
2018,10,22,04,07,2.90
2018,10,22,04,08,2.90
2018,10,22,04,09,2.90
2018,10,22,04,10,2.90
2018,10,22,04,11,2.90
2018,10,22,04,12,2.90
2018,10,22,04,13,2.90
2018,10,22,04,14,2.90
2018,10,22,04,15,2.90
2018,10,22,04,16,2.90
2018,10,22,04,17,2.90
2018,10,22,04,18,2.90
2018,10,22,04,19,2.90
2018,10,22,04,20,2.90
2018,10,22,04,21,2.90
2018,10,22,04,22,2.80
2018,10,22,04,23,2.80
2018,10,22,04,24,2.80
2018,10,22,04,25,2.80
2018,10,22,04,26,2.80
2018,10,22,04,27,2.80
2018,10,22,04,28,2.80
2018,10,22,04,29,2.70
2018,10,22,04,30,2.70
2018,10,22,04,31,2.70
2018,10,22,04,32,2.70
2018,10,22,04,33,2.70
2018,10,22,04,34,2.70
2018,10,22,04,35,2.70
2018,10,22,04,36,2.70
2018,10,22,04,37,2.70
2018,10,22,04,38,2.80
2018,10,22,04,39,2.80
2018,10,22,04,40,2.80
2018,10,22,04,41,2.80
2018,10,22,04,42,2.80
2018,10,22,04,43,2.80
2018,10,22,04,44,2.80
2018,10,22,04,45,2.80
2018,10,22,04,46,2.80
2018,10,22,04,47,2.80
2018,10,22,04,48,2.80
2018,10,22,04,49,2.80
2018,10,22,04,50,2.80
2018,10,22,04,51,2.80
2018,10,22,04,52,2.80
2018,10,22,04,53,2.80
2018,10,22,04,54,2.80
2018,10,22,04,55,2.70
2018,10,22,04,56,2.70
2018,10,22,04,57,2.70
2018,10,22,04,58,2.70
2018,10,22,04,59,2.70
2018,10,22,05,00,2.70
2018,10,22,05,01,2.70
2018,10,22,05,02,2.60
2018,10,22,05,03,2.60
2018,10,22,05,04,2.60
2018,10,22,05,05,2.60
2018,10,22,05,06,2.60
2018,10,22,05,07,2.60
2018,10,22,05,08,2.60
2018,10,22,05,09,2.60
2018,10,22,05,10,2.60
2018,10,22,05,11,2.60
2018,10,22,05,12,2.60
2018,10,22,05,13,2.60
2018,10,22,05,14,2.60
2018,10,22,05,15,2.50
2018,10,22,05,16,2.50
2018,10,22,05,17,2.50
2018,10,22,05,18,2.50
2018,10,22,05,19,2.40
2018,10,22,05,20,2.40
2018,10,22,05,21,2.40
2018,10,22,05,22,2.40
2018,10,22,05,23,2.40
2018,10,22,05,24,2.40
2018,10,22,05,25,2.40
2018,10,22,05,26,2.40
2018,10,22,05,27,2.40
2018,10,22,05,28,2.40
2018,10,22,05,29,2.40
2018,10,22,05,30,2.40
2018,10,22,05,31,2.40
2018,10,22,05,32,2.40
2018,10,22,05,33,2.40
2018,10,22,05,34,2.40
2018,10,22,05,35,2.40
2018,10,22,05,36,2.40
2018,10,22,05,37,2.40
2018,10,22,05,38,2.30
2018,10,22,05,39,2.30
2018,10,22,05,40,2.30
2018,10,22,05,41,2.30
2018,10,22,05,42,2.30
2018,10,22,05,43,2.30
2018,10,22,05,44,2.30
2018,10,22,05,45,2.30
2018,10,22,05,46,2.30
2018,10,22,05,47,2.30
2018,10,22,05,48,2.30
2018,10,22,05,49,2.30
2018,10,22,05,50,2.30
2018,10,22,05,51,2.30
2018,10,22,05,52,2.30
2018,10,22,05,53,2.30
2018,10,22,05,54,2.30
2018,10,22,05,55,2.30
2018,10,22,05,56,2.30
2018,10,22,05,57,2.30
2018,10,22,05,58,2.30
2018,10,22,05,59,2.30
2018,10,22,06,00,2.30
2018,10,22,06,01,2.30
2018,10,22,06,02,2.30
2018,10,22,06,03,2.30
2018,10,22,06,04,2.30
2018,10,22,06,05,2.30
2018,10,22,06,06,2.30
2018,10,22,06,07,2.30
2018,10,22,06,08,2.30
2018,10,22,06,09,2.30
2018,10,22,06,10,2.30
2018,10,22,06,11,2.30
2018,10,22,06,12,2.30
2018,10,22,06,13,2.30
2018,10,22,06,14,2.30
2018,10,22,06,15,2.30
2018,10,22,06,16,2.30
2018,10,22,06,17,2.30
2018,10,22,06,18,2.30
2018,10,22,06,19,2.30
2018,10,22,06,20,2.30
2018,10,22,06,21,2.30
2018,10,22,06,22,2.30
2018,10,22,06,23,2.30
2018,10,22,06,24,2.30
2018,10,22,06,25,2.40
2018,10,22,06,26,2.40
2018,10,22,06,27,2.40
2018,10,22,06,28,2.40
2018,10,22,06,29,2.40
2018,10,22,06,30,2.40
2018,10,22,06,31,2.40
2018,10,22,06,32,2.40
2018,10,22,06,33,2.40
2018,10,22,06,34,2.40
2018,10,22,06,35,2.40
2018,10,22,06,36,2.40
2018,10,22,06,37,2.40
2018,10,22,06,38,2.40
2018,10,22,06,39,2.40
2018,10,22,06,40,2.40
2018,10,22,06,41,2.40
2018,10,22,06,42,2.40
2018,10,22,06,43,2.40
2018,10,22,06,44,2.40
2018,10,22,06,45,2.40
2018,10,22,06,46,2.30
2018,10,22,06,47,2.40
2018,10,22,06,48,2.30
2018,10,22,06,49,2.30
2018,10,22,06,50,2.30
2018,10,22,06,51,2.30
2018,10,22,06,52,2.30
2018,10,22,06,53,2.30
2018,10,22,06,54,2.30
2018,10,22,06,55,2.30
2018,10,22,06,56,2.30
2018,10,22,06,57,2.30
2018,10,22,06,58,2.30
2018,10,22,06,59,2.30
2018,10,22,07,00,2.30
2018,10,22,07,01,2.30
2018,10,22,07,02,2.30
2018,10,22,07,03,2.30
2018,10,22,07,04,2.30
2018,10,22,07,05,2.30
2018,10,22,07,06,2.30
2018,10,22,07,07,2.30
2018,10,22,07,08,2.30
2018,10,22,07,09,2.30
2018,10,22,07,10,2.30
2018,10,22,07,11,2.30
2018,10,22,07,12,2.30
2018,10,22,07,13,2.30
2018,10,22,07,14,2.30
2018,10,22,07,15,2.30
2018,10,22,07,16,2.30
2018,10,22,07,17,2.30
2018,10,22,07,18,2.30
2018,10,22,07,19,2.30
2018,10,22,07,20,2.30
2018,10,22,07,21,2.30
2018,10,22,07,22,2.30
2018,10,22,07,23,2.30
2018,10,22,07,24,2.30
2018,10,22,07,25,2.30
2018,10,22,07,26,2.30
2018,10,22,07,27,2.30
2018,10,22,07,28,2.30
2018,10,22,07,29,2.30
2018,10,22,07,30,2.30
2018,10,22,07,31,2.30
2018,10,22,07,32,2.30
2018,10,22,07,33,2.30
2018,10,22,07,34,2.30
2018,10,22,07,35,2.30
2018,10,22,07,36,2.30
2018,10,22,07,37,2.30
2018,10,22,07,38,2.30
2018,10,22,07,39,2.30
2018,10,22,07,40,2.30
2018,10,22,07,41,2.30
2018,10,22,07,42,2.30
2018,10,22,07,43,2.40
2018,10,22,07,44,2.30
2018,10,22,07,45,2.30
2018,10,22,07,46,2.40
2018,10,22,07,47,2.30
2018,10,22,07,48,2.30
2018,10,22,07,49,2.30
2018,10,22,07,50,2.30
2018,10,22,07,51,2.30
2018,10,22,07,52,2.30
2018,10,22,07,53,2.30
2018,10,22,07,54,2.40
2018,10,22,07,55,2.40
2018,10,22,07,56,2.40
2018,10,22,07,57,2.30
2018,10,22,07,58,2.30
2018,10,22,07,59,2.30
2018,10,22,08,00,2.30
2018,10,22,08,01,2.30
2018,10,22,08,02,2.30
2018,10,22,08,03,2.30
2018,10,22,08,04,2.30
2018,10,22,08,05,2.30
2018,10,22,08,06,2.30
2018,10,22,08,07,2.20
2018,10,22,08,08,2.20
2018,10,22,08,09,2.20
2018,10,22,08,10,2.20
2018,10,22,08,11,2.20
2018,10,22,08,12,2.20
2018,10,22,08,13,2.20
2018,10,22,08,14,2.20
2018,10,22,08,15,2.20
2018,10,22,08,16,2.20
2018,10,22,08,17,2.20
2018,10,22,08,18,2.20
2018,10,22,08,19,2.20
2018,10,22,08,20,2.20
2018,10,22,08,21,2.20
2018,10,22,08,22,2.10
2018,10,22,08,23,2.10
2018,10,22,08,24,2.10
2018,10,22,08,25,2.10
2018,10,22,08,26,2.10
2018,10,22,08,27,2.10
2018,10,22,08,28,2.10
2018,10,22,08,29,2.10
2018,10,22,08,30,2.10
2018,10,22,08,31,2.10
2018,10,22,08,32,2.20
2018,10,22,08,33,2.20
2018,10,22,08,34,2.20
2018,10,22,08,35,2.20
2018,10,22,08,36,2.20
2018,10,22,08,37,2.30
2018,10,22,08,38,2.30
2018,10,22,08,39,2.30
2018,10,22,08,40,2.30
2018,10,22,08,41,2.40
2018,10,22,08,42,2.40
2018,10,22,08,43,2.40
2018,10,22,08,44,2.40
2018,10,22,08,45,2.50
2018,10,22,08,46,2.50
2018,10,22,08,47,2.50
2018,10,22,08,48,2.50
2018,10,22,08,49,2.60
2018,10,22,08,50,2.60
2018,10,22,08,51,2.70
2018,10,22,08,52,2.70
2018,10,22,08,53,2.70
2018,10,22,08,54,2.80
2018,10,22,08,55,2.80
2018,10,22,08,56,2.80
2018,10,22,08,57,2.80
2018,10,22,08,58,2.90
2018,10,22,08,59,2.90
2018,10,22,09,00,3.00
2018,10,22,09,01,3.00
2018,10,22,09,02,3.10
2018,10,22,09,03,3.10
2018,10,22,09,04,3.10
2018,10,22,09,05,3.20
2018,10,22,09,06,3.20
2018,10,22,09,07,3.30
2018,10,22,09,08,3.30
2018,10,22,09,09,3.30
2018,10,22,09,10,3.40
2018,10,22,09,11,3.40
2018,10,22,09,12,3.40
2018,10,22,09,13,3.50
2018,10,22,09,14,3.60
2018,10,22,09,15,3.60
2018,10,22,09,16,3.70
2018,10,22,09,17,3.70
2018,10,22,09,18,3.80
2018,10,22,09,19,3.80
2018,10,22,09,20,3.80
2018,10,22,09,21,3.90
2018,10,22,09,22,3.90
2018,10,22,09,23,4.00
2018,10,22,09,24,4.00
2018,10,22,09,25,4.10
2018,10,22,09,26,4.10
2018,10,22,09,27,4.20
2018,10,22,09,28,4.20
2018,10,22,09,29,4.20
2018,10,22,09,30,4.30
2018,10,22,09,31,4.30
2018,10,22,09,32,4.30
2018,10,22,09,33,4.40
2018,10,22,09,34,4.40
2018,10,22,09,35,4.40
2018,10,22,09,36,4.40
2018,10,22,09,37,4.50
2018,10,22,09,38,4.50
2018,10,22,09,39,4.60
2018,10,22,09,40,4.60
2018,10,22,09,41,4.70
2018,10,22,09,42,4.70
2018,10,22,09,43,4.80
2018,10,22,09,44,4.90
2018,10,22,09,45,4.90
2018,10,22,09,46,5.00
2018,10,22,09,47,5.10
2018,10,22,09,48,5.10
2018,10,22,09,49,5.10
2018,10,22,09,50,5.20
2018,10,22,09,51,5.20
2018,10,22,09,52,5.30
2018,10,22,09,53,5.30
2018,10,22,09,54,5.40
2018,10,22,09,55,5.40
2018,10,22,09,56,5.40
2018,10,22,09,57,5.50
2018,10,22,09,58,5.50
2018,10,22,09,59,5.60
2018,10,22,10,00,5.60
2018,10,22,10,01,5.60
2018,10,22,10,02,5.60
2018,10,22,10,03,5.70
2018,10,22,10,04,5.70
2018,10,22,10,05,5.70
2018,10,22,10,06,5.70
2018,10,22,10,07,5.80
2018,10,22,10,08,5.80
2018,10,22,10,09,5.80
2018,10,22,10,10,5.80
2018,10,22,10,11,5.90
2018,10,22,10,12,6.00
2018,10,22,10,13,6.10
2018,10,22,10,14,6.10
2018,10,22,10,15,6.20
2018,10,22,10,16,6.20
2018,10,22,10,17,6.30
2018,10,22,10,18,6.30
2018,10,22,10,19,6.40
2018,10,22,10,20,6.40
2018,10,22,10,21,6.40
2018,10,22,10,22,6.50
2018,10,22,10,23,6.60
2018,10,22,10,24,6.60
2018,10,22,10,25,6.60
2018,10,22,10,26,6.70
2018,10,22,10,27,6.70
2018,10,22,10,28,6.70
2018,10,22,10,29,6.70
2018,10,22,10,30,6.80
2018,10,22,10,31,6.80
2018,10,22,10,32,6.90
2018,10,22,10,33,7.00
2018,10,22,10,34,7.10
2018,10,22,10,35,7.20
2018,10,22,10,36,7.20
2018,10,22,10,37,7.30
2018,10,22,10,38,7.40
2018,10,22,10,39,7.50
2018,10,22,10,40,7.70
2018,10,22,10,41,7.90
2018,10,22,10,42,8.00
2018,10,22,10,43,8.10
2018,10,22,10,44,8.20
2018,10,22,10,45,8.30
2018,10,22,10,46,8.30
2018,10,22,10,47,8.30
2018,10,22,10,48,8.30
2018,10,22,10,49,8.40
2018,10,22,10,50,8.40
2018,10,22,10,51,8.50
2018,10,22,10,52,8.50
2018,10,22,10,53,8.60
2018,10,22,10,54,8.60
2018,10,22,10,55,8.60
2018,10,22,10,56,8.60
2018,10,22,10,57,8.60
2018,10,22,10,58,8.60
2018,10,22,10,59,8.60
2018,10,22,11,00,8.60
2018,10,22,11,01,8.70
2018,10,22,11,02,8.70
2018,10,22,11,03,8.80
2018,10,22,11,04,8.80
2018,10,22,11,05,8.90
2018,10,22,11,06,8.90
2018,10,22,11,07,8.90
2018,10,22,11,08,8.90
2018,10,22,11,09,8.90
2018,10,22,11,10,8.90
2018,10,22,11,11,8.90
2018,10,22,11,12,8.90
2018,10,22,11,13,8.90
2018,10,22,11,14,8.90
2018,10,22,11,15,9.20
2018,10,22,11,16,10.30
2018,10,22,11,17,10.40
2018,10,22,11,18,10.50
2018,10,22,11,19,10.60
2018,10,22,11,20,10.70
2018,10,22,11,21,10.80
2018,10,22,11,22,10.90
2018,10,22,11,23,11.10
2018,10,22,11,24,11.20
2018,10,22,11,25,11.30
2018,10,22,11,26,11.50
2018,10,22,11,27,11.70
2018,10,22,11,28,11.80
2018,10,22,11,29,12.00
2018,10,22,11,30,12.10
2018,10,22,11,31,12.10
2018,10,22,11,32,12.20
2018,10,22,11,33,12.30
2018,10,22,11,34,12.40
2018,10,22,11,35,12.50
2018,10,22,11,36,12.50
2018,10,22,11,37,12.60
2018,10,22,11,38,12.70
2018,10,22,11,39,12.70
2018,10,22,11,40,12.80
2018,10,22,11,41,13.00
2018,10,22,11,42,13.10
2018,10,22,11,43,13.20
2018,10,22,11,44,13.30
2018,10,22,11,45,13.30
2018,10,22,11,46,13.30
2018,10,22,11,47,13.50
2018,10,22,11,48,13.60
2018,10,22,11,49,13.60
2018,10,22,11,50,13.70
2018,10,22,11,51,13.70
2018,10,22,11,52,13.80
2018,10,22,11,53,13.80
2018,10,22,11,54,13.90
2018,10,22,11,55,14.00
2018,10,22,11,56,14.10
2018,10,22,11,57,14.10
2018,10,22,11,58,14.20
2018,10,22,11,59,14.30
2018,10,22,12,00,14.40
2018,10,22,12,01,14.50
2018,10,22,12,02,14.60
2018,10,22,12,03,14.70
2018,10,22,12,04,14.70
2018,10,22,12,05,14.90
2018,10,22,12,06,15.00
2018,10,22,12,07,15.00
2018,10,22,12,08,15.00
2018,10,22,12,09,15.20
2018,10,22,12,10,15.20
2018,10,22,12,11,15.20
2018,10,22,12,12,15.40
2018,10,22,12,13,15.50
2018,10,22,12,14,15.60
2018,10,22,12,15,15.60
2018,10,22,12,16,15.60
2018,10,22,12,17,15.60
2018,10,22,12,18,15.70
2018,10,22,12,19,15.70
2018,10,22,12,20,15.70
2018,10,22,12,21,15.70
2018,10,22,12,22,15.70
2018,10,22,12,23,15.70
2018,10,22,12,24,15.70
2018,10,22,12,25,15.70
2018,10,22,12,26,15.70
2018,10,22,12,27,15.70
2018,10,22,12,28,15.70
2018,10,22,12,29,15.70
2018,10,22,12,30,15.70
2018,10,22,12,31,15.70
2018,10,22,12,32,15.70
2018,10,22,12,33,15.70
2018,10,22,12,34,15.70
2018,10,22,12,35,15.80
2018,10,22,12,36,15.80
2018,10,22,12,37,15.80
2018,10,22,12,38,15.80
2018,10,22,12,39,15.90
2018,10,22,12,40,15.90
2018,10,22,12,41,16.00
2018,10,22,12,42,16.00
2018,10,22,12,43,16.00
2018,10,22,12,44,16.00
2018,10,22,12,45,16.00
2018,10,22,12,46,16.00
2018,10,22,12,47,16.10
2018,10,22,12,48,16.10
2018,10,22,12,49,16.20
2018,10,22,12,50,16.20
2018,10,22,12,51,16.30
2018,10,22,12,52,16.30
2018,10,22,12,53,16.30
2018,10,22,12,54,16.30
2018,10,22,12,55,16.30
2018,10,22,12,56,16.30
2018,10,22,12,57,16.30
2018,10,22,12,58,16.30
2018,10,22,12,59,16.30
2018,10,22,13,00,16.30
2018,10,22,13,01,16.40
2018,10,22,13,02,16.40
2018,10,22,13,03,16.50
2018,10,22,13,04,16.50
2018,10,22,13,05,16.60
2018,10,22,13,06,16.70
2018,10,22,13,07,16.80
2018,10,22,13,08,16.90
2018,10,22,13,09,16.90
2018,10,22,13,10,16.90
2018,10,22,13,11,16.90
2018,10,22,13,12,16.90
2018,10,22,13,13,16.90
2018,10,22,13,14,16.90
2018,10,22,13,15,16.80
2018,10,22,13,16,16.80
2018,10,22,13,17,16.80
2018,10,22,13,18,16.80
2018,10,22,13,19,16.80
2018,10,22,13,20,16.80
2018,10,22,13,21,16.90
2018,10,22,13,22,17.00
2018,10,22,13,23,17.00
2018,10,22,13,24,17.10
2018,10,22,13,25,17.10
2018,10,22,13,26,17.10
2018,10,22,13,27,17.10
2018,10,22,13,28,17.20
2018,10,22,13,29,17.30
2018,10,22,13,30,17.40
2018,10,22,13,31,17.40
2018,10,22,13,32,17.50
2018,10,22,13,33,17.50
2018,10,22,13,34,17.50
2018,10,22,13,35,17.50
2018,10,22,13,36,17.60
2018,10,22,13,37,17.60
2018,10,22,13,38,17.60
2018,10,22,13,39,17.60
2018,10,22,13,40,17.60
2018,10,22,13,41,17.70
2018,10,22,13,42,17.70
2018,10,22,13,43,17.80
2018,10,22,13,44,17.90
2018,10,22,13,45,18.00
2018,10,22,13,46,18.00
2018,10,22,13,47,18.00
2018,10,22,13,48,18.00
2018,10,22,13,49,18.00
2018,10,22,13,50,18.00
2018,10,22,13,51,18.10
2018,10,22,13,52,18.10
2018,10,22,13,53,18.10
2018,10,22,13,54,18.10
2018,10,22,13,55,18.10
2018,10,22,13,56,18.10
2018,10,22,13,57,18.10
2018,10,22,13,58,18.00
2018,10,22,13,59,18.00
2018,10,22,14,00,17.90
2018,10,22,14,01,17.80
2018,10,22,14,02,17.80
2018,10,22,14,03,17.80
2018,10,22,14,04,17.80
2018,10,22,14,05,17.80
2018,10,22,14,06,17.80
2018,10,22,14,07,17.80
2018,10,22,14,08,17.80
2018,10,22,14,09,17.80
2018,10,22,14,10,17.80
2018,10,22,14,11,17.80
2018,10,22,14,12,17.80
2018,10,22,14,13,17.80
2018,10,22,14,14,17.70
2018,10,22,14,15,17.70
2018,10,22,14,16,17.70
2018,10,22,14,17,17.70
2018,10,22,14,18,17.80
2018,10,22,14,19,17.80
2018,10,22,14,20,17.80
2018,10,22,14,21,17.80
2018,10,22,14,22,17.90
2018,10,22,14,23,17.90
2018,10,22,14,24,17.90
2018,10,22,14,25,17.90
2018,10,22,14,26,17.90
2018,10,22,14,27,17.90
2018,10,22,14,28,17.80
2018,10,22,14,29,17.80
2018,10,22,14,30,17.80
2018,10,22,14,31,17.70
2018,10,22,14,32,17.70
2018,10,22,14,33,17.70
2018,10,22,14,34,17.70
2018,10,22,14,35,17.70
2018,10,22,14,36,17.60
2018,10,22,14,37,17.60
2018,10,22,14,38,17.60
2018,10,22,14,39,17.60
2018,10,22,14,40,17.50
2018,10,22,14,41,17.30
2018,10,22,14,42,17.30
2018,10,22,14,43,17.30
2018,10,22,14,44,17.40
2018,10,22,14,45,17.40
2018,10,22,14,46,17.40
2018,10,22,14,47,17.40
2018,10,22,14,48,17.40
2018,10,22,14,49,17.40
2018,10,22,14,50,17.40
2018,10,22,14,51,17.50
2018,10,22,14,52,17.50
2018,10,22,14,53,17.50
2018,10,22,14,54,17.50
2018,10,22,14,55,17.50
2018,10,22,14,56,17.50
2018,10,22,14,57,17.60
2018,10,22,14,58,17.60
2018,10,22,14,59,17.60
2018,10,22,15,00,17.70
2018,10,22,15,01,17.70
2018,10,22,15,02,17.70
2018,10,22,15,03,17.70
2018,10,22,15,04,17.70
2018,10,22,15,05,17.70
2018,10,22,15,06,17.70
2018,10,22,15,07,17.70
2018,10,22,15,08,17.70
2018,10,22,15,09,17.70
2018,10,22,15,10,17.70
2018,10,22,15,11,17.60
2018,10,22,15,12,17.60
2018,10,22,15,13,17.60
2018,10,22,15,14,17.60
2018,10,22,15,15,17.60
2018,10,22,15,16,17.60
2018,10,22,15,17,17.60
2018,10,22,15,18,17.60
2018,10,22,15,19,17.60
2018,10,22,15,20,17.70
2018,10,22,15,21,17.60
2018,10,22,15,22,17.70
2018,10,22,15,23,17.70
2018,10,22,15,24,17.70
2018,10,22,15,25,17.60
2018,10,22,15,26,17.60
2018,10,22,15,27,17.60
2018,10,22,15,28,17.60
2018,10,22,15,29,17.60
2018,10,22,15,30,17.50
2018,10,22,15,31,17.40
2018,10,22,15,32,17.40
2018,10,22,15,33,17.40
2018,10,22,15,34,17.40
2018,10,22,15,35,17.40
2018,10,22,15,36,17.40
2018,10,22,15,37,17.40
2018,10,22,15,38,17.40
2018,10,22,15,39,17.40
2018,10,22,15,40,17.40
2018,10,22,15,41,17.40
2018,10,22,15,42,17.30
2018,10,22,15,43,17.30
2018,10,22,15,44,17.30
2018,10,22,15,45,17.40
2018,10,22,15,46,17.40
2018,10,22,15,47,17.40
2018,10,22,15,48,17.40
2018,10,22,15,49,17.40
2018,10,22,15,50,17.40
2018,10,22,15,51,17.40
2018,10,22,15,52,17.40
2018,10,22,15,53,17.30
2018,10,22,15,54,17.30
2018,10,22,15,55,17.30
2018,10,22,15,56,17.30
2018,10,22,15,57,17.20
2018,10,22,15,58,17.20
2018,10,22,15,59,17.20
2018,10,22,16,00,17.20
2018,10,22,16,01,17.20
2018,10,22,16,02,17.20
2018,10,22,16,03,17.30
2018,10,22,16,04,17.30
2018,10,22,16,05,17.20
2018,10,22,16,06,17.30
2018,10,22,16,07,17.30
2018,10,22,16,08,17.30
2018,10,22,16,09,17.30
2018,10,22,16,10,17.30
2018,10,22,16,11,17.30
2018,10,22,16,12,17.20
2018,10,22,16,13,17.20
2018,10,22,16,14,17.20
2018,10,22,16,15,17.20
2018,10,22,16,16,17.20
2018,10,22,16,17,17.10
2018,10,22,16,18,17.10
2018,10,22,16,19,17.10
2018,10,22,16,20,17.10
2018,10,22,16,21,17.10
2018,10,22,16,22,17.10
2018,10,22,16,23,17.10
2018,10,22,16,24,17.10
2018,10,22,16,25,17.00
2018,10,22,16,26,17.00
2018,10,22,16,27,17.00
2018,10,22,16,28,17.00
2018,10,22,16,29,17.00
2018,10,22,16,30,17.00
2018,10,22,16,31,17.00
2018,10,22,16,32,17.00
2018,10,22,16,33,17.00
2018,10,22,16,34,16.90
2018,10,22,16,35,16.90
2018,10,22,16,36,16.80
2018,10,22,16,37,16.80
2018,10,22,16,38,16.80
2018,10,22,16,39,16.80
2018,10,22,16,40,16.80
2018,10,22,16,41,16.80
2018,10,22,16,42,16.70
2018,10,22,16,43,16.70
2018,10,22,16,44,16.70
2018,10,22,16,45,16.70
2018,10,22,16,46,16.60
2018,10,22,16,47,16.60
2018,10,22,16,48,16.60
2018,10,22,16,49,16.50
2018,10,22,16,50,16.50
2018,10,22,16,51,16.50
2018,10,22,16,52,16.40
2018,10,22,16,53,16.40
2018,10,22,16,54,16.40
2018,10,22,16,55,16.40
2018,10,22,16,56,16.30
2018,10,22,16,57,16.30
2018,10,22,16,58,16.30
2018,10,22,16,59,16.30
2018,10,22,17,00,16.20
2018,10,22,17,01,16.20
2018,10,22,17,02,16.20
2018,10,22,17,03,16.10
2018,10,22,17,04,16.10
2018,10,22,17,05,16.10
2018,10,22,17,06,16.10
2018,10,22,17,07,16.00
2018,10,22,17,08,16.00
2018,10,22,17,09,16.00
2018,10,22,17,10,15.90
2018,10,22,17,11,15.90
2018,10,22,17,12,15.90
2018,10,22,17,13,15.90
2018,10,22,17,14,15.90
2018,10,22,17,15,15.80
2018,10,22,17,16,15.80
2018,10,22,17,17,15.80
2018,10,22,17,18,15.80
2018,10,22,17,19,15.80
2018,10,22,17,20,15.70
2018,10,22,17,21,15.70
2018,10,22,17,22,15.70
2018,10,22,17,23,15.70
2018,10,22,17,24,15.70
2018,10,22,17,25,15.70
2018,10,22,17,26,15.70
2018,10,22,17,27,15.70
2018,10,22,17,28,15.60
2018,10,22,17,29,15.60
2018,10,22,17,30,15.60
2018,10,22,17,31,15.60
2018,10,22,17,32,15.50
2018,10,22,17,33,15.50
2018,10,22,17,34,15.40
2018,10,22,17,35,15.40
2018,10,22,17,36,15.30
2018,10,22,17,37,15.30
2018,10,22,17,38,15.20
2018,10,22,17,39,15.20
2018,10,22,17,40,15.10
2018,10,22,17,41,15.00
2018,10,22,17,42,15.00
2018,10,22,17,43,15.00
2018,10,22,17,44,15.00
2018,10,22,17,45,15.00
2018,10,22,17,46,15.00
2018,10,22,17,47,14.90
2018,10,22,17,48,14.80
2018,10,22,17,49,14.80
2018,10,22,17,50,14.70
2018,10,22,17,51,14.70
2018,10,22,17,52,14.60
2018,10,22,17,53,14.60
2018,10,22,17,54,14.50
2018,10,22,17,55,14.50
2018,10,22,17,56,14.30
2018,10,22,17,57,14.30
2018,10,22,17,58,14.20
2018,10,22,17,59,14.20
2018,10,22,18,00,14.10
2018,10,22,18,01,14.00
2018,10,22,18,02,13.90
2018,10,22,18,03,13.90
2018,10,22,18,04,13.80
2018,10,22,18,05,13.70
2018,10,22,18,06,13.60
2018,10,22,18,07,13.50